| time (UTC) | temp F | wind direction | speed MPH | gust MPH | rain 1hr in | rain 24hr in | rain mn in | humidity % | barometer mb |
| 20260831200112 | 76 | 0 | 0.0 | 0.0 | 0.00 | 0.00 | 0.00 | 77 | 1019.8 |
| 20260831194624 | 77 | 0 | 0.0 | 0.0 | 0.00 | 0.00 | 0.00 | 73 | 1020.0 |
| 20260831193058 | 77 | 0 | 0.0 | 0.0 | 0.00 | 0.00 | 0.00 | 70 | 1020.1 |
| 20260831191602 | 77 | 0 | 0.0 | 0.0 | 0.00 | 0.00 | 0.00 | 69 | 1020.1 |
| 20260831184601 | 77 | 0 | 0.0 | 0.0 | 0.00 | 0.00 | 0.00 | 69 | 1020.3 |
| 20260831183056 | 77 | 0 | 0.0 | 0.0 | 0.00 | 0.00 | 0.00 | 69 | 1020.2 |
| 20260831181605 | 77 | 0 | 0.0 | 0.0 | 0.00 | 0.00 | 0.00 | 69 | 1020.5 |
| 20260831180107 | 77 | 0 | 0.0 | 0.0 | 0.00 | 0.00 | 0.00 | 70 | 1020.5 |
| 20260831174559 | 77 | 0 | 0.0 | 0.0 | 0.00 | 0.00 | 0.00 | 72 | 1020.5 |
| 20260831173058 | 76 | 0 | 0.0 | 0.0 | 0.00 | 0.00 | 0.00 | 69 | 1020.5 |
| 20260831171602 | 76 | 0 | 0.0 | 0.0 | 0.00 | 0.00 | 0.00 | 69 | 1020.6 |
| 20260831170111 | 77 | 0 | 0.0 | 3.0 | 0.00 | 0.00 | 0.00 | 72 | 1020.4 |
| 20260831164614 | 76 | 0 | 0.0 | 0.0 | 0.00 | 0.00 | 0.00 | 71 | 1020.5 |
| 20260831163110 | 76 | 0 | 0.0 | 6.0 | 0.00 | 0.00 | 0.00 | 70 | 1020.6 |
| 20260831161608 | 75 | 0 | 0.0 | 4.0 | 0.00 | 0.00 | 0.00 | 74 | 1020.5 |
| 20260831160059 | 74 | 0 | 0.0 | 5.0 | 0.00 | 0.00 | 0.00 | 78 | 1020.7 |
| 20260831154627 | 72 | 0 | 0.0 | 7.0 | 0.00 | 0.00 | 0.00 | 80 | 1020.5 |
| 20260831153105 | 71 | 0 | 0.0 | 0.0 | 0.00 | 0.00 | 0.00 | 84 | 1020.7 |
| 20260831151600 | 71 | 0 | 0.0 | 4.0 | 0.00 | 0.00 | 0.00 | 88 | 1020.7 |
| 20260831150058 | 70 | 0 | 0.0 | 3.0 | 0.00 | 0.00 | 0.00 | 92 | 1020.8 |
| 20260831144603 | 69 | 0 | 0.0 | 0.0 | 0.00 | 0.00 | 0.00 | 95 | 1020.9 |
| 20260831143108 | 68 | 0 | 0.0 | 2.0 | 0.00 | 0.00 | 0.00 | 97 | 1021.0 |
| 20260831141558 | 68 | 0 | 0.0 | 6.0 | 0.00 | 0.00 | 0.00 | 98 | 1021.1 |
| 20260831140056 | 68 | 0 | 0.0 | 3.0 | 0.00 | 0.00 | 0.00 | 99 | 1020.8 |
| 20260831134602 | 67 | 0 | 0.0 | 3.0 | 0.00 | 0.00 | 0.00 | 99 | 1020.7 |
| 20260831133057 | 68 | 0 | 0.0 | 4.0 | 0.00 | 0.00 | 0.00 | 99 | 1020.9 |
| 20260831131558 | 68 | 0 | 0.0 | 0.0 | 0.00 | 0.00 | 0.00 | 99 | 1021.1 |
| 20260831130110 | 68 | 0 | 0.0 | 0.0 | 0.00 | 0.00 | 0.00 | 99 | 1020.9 |
| 20260831124556 | 68 | 0 | 0.0 | 0.0 | 0.00 | 0.00 | 0.00 | 99 | 1020.9 |
| 20260831123058 | 68 | 0 | 0.0 | 0.0 | 0.00 | 0.00 | 0.00 | 99 | 1020.9 |
| 20260831121607 | 68 | 0 | 0.0 | 0.0 | 0.00 | 0.00 | 0.00 | 99 | 1020.8 |
| 20260831120112 | 67 | 0 | 0.0 | 0.0 | 0.00 | 0.00 | 0.00 | 99 | 1020.7 |
| 20260831114557 | 67 | 0 | 0.0 | 0.0 | 0.00 | 0.00 | 0.00 | 99 | 1020.6 |
| 20260831113104 | 66 | 0 | 0.0 | 0.0 | 0.00 | 0.00 | 0.00 | 99 | 1020.5 |
| 20260831111604 | 66 | 0 | 0.0 | 0.0 | 0.00 | 0.00 | 0.00 | 99 | 1020.2 |
| 20260831110105 | 66 | 0 | 0.0 | 0.0 | 0.00 | 0.00 | 0.00 | 99 | 1020.0 |
| 20260831104600 | 66 | 0 | 0.0 | 0.0 | 0.00 | 0.00 | 0.00 | 99 | 1020.1 |
| 20260831103057 | 66 | 0 | 0.0 | 0.0 | 0.00 | 0.00 | 0.00 | 99 | 1020.2 |
| 20260831101604 | 66 | 0 | 0.0 | 0.0 | 0.00 | 0.00 | 0.00 | 98 | 1020.1 |
| 20260831100104 | 66 | 0 | 0.0 | 0.0 | 0.00 | 0.00 | 0.00 | 98 | 1020.0 |
| 20260831094556 | 66 | 0 | 0.0 | 0.0 | 0.00 | 0.00 | 0.00 | 98 | 1019.7 |
| 20260831093058 | 66 | 0 | 0.0 | 0.0 | 0.00 | 0.00 | 0.00 | 98 | 1019.5 |
| 20260831091609 | 66 | 0 | 0.0 | 0.0 | 0.00 | 0.00 | 0.00 | 98 | 1019.4 |
| 20260831090057 | 66 | 0 | 0.0 | 0.0 | 0.00 | 0.00 | 0.00 | 98 | 1019.2 |
| 20260831084556 | 66 | 0 | 0.0 | 0.0 | 0.00 | 0.00 | 0.00 | 98 | 1019.6 |
| 20260831083104 | 66 | 0 | 0.0 | 0.0 | 0.00 | 0.00 | 0.00 | 98 | 1019.6 |
| 20260831081558 | 66 | 0 | 0.0 | 0.0 | 0.00 | 0.00 | 0.00 | 98 | 1019.5 |
| 20260831080108 | 67 | 0 | 0.0 | 0.0 | 0.00 | 0.00 | 0.00 | 98 | 1019.5 |
| 20260831074557 | 67 | 0 | 0.0 | 0.0 | 0.00 | 0.00 | 0.00 | 98 | 1019.4 |
| 20260831073111 | 68 | 0 | 0.0 | 0.0 | 0.00 | 0.00 | 0.00 | 98 | 1019.4 |
| 20260831071558 | 68 | 0 | 0.0 | 0.0 | 0.00 | 0.00 | 0.00 | 98 | 1019.5 |
| 20260831070058 | 69 | 0 | 0.0 | 0.0 | 0.00 | 0.00 | 0.00 | 98 | 1019.5 |
| 20260831064604 | 69 | 0 | 0.0 | 0.0 | 0.00 | 0.00 | 0.00 | 98 | 1019.4 |
| 20260831063100 | 69 | 0 | 0.0 | 0.0 | 0.00 | 0.00 | 0.00 | 98 | 1019.4 |
| 20260831061557 | 69 | 0 | 0.0 | 0.0 | 0.00 | 0.00 | 0.00 | 98 | 1019.6 |
| 20260831060109 | 69 | 0 | 0.0 | 0.0 | 0.00 | 0.00 | 0.00 | 98 | 1019.3 |
| 20260831054601 | 70 | 0 | 0.0 | 0.0 | 0.00 | 0.00 | 0.00 | 98 | 1019.0 |
| 20260831053059 | 70 | 0 | 0.0 | 0.0 | 0.00 | 0.00 | 0.00 | 98 | 1019.2 |
| 20260831051606 | 70 | 0 | 0.0 | 0.0 | 0.00 | 0.00 | 0.00 | 97 | 1019.3 |
| 20260831044605 | 70 | 0 | 0.0 | 0.0 | 0.00 | 0.00 | 0.00 | 97 | 1019.7 |
| 20260831043057 | 71 | 0 | 0.0 | 0.0 | 0.00 | 0.00 | 0.00 | 97 | 1019.7 |
| 20260831041645 | 71 | 0 | 0.0 | 0.0 | 0.00 | 0.00 | 0.00 | 97 | 1019.7 |
| 20260831040101 | 71 | 0 | 0.0 | 0.0 | 0.00 | 0.00 | 0.00 | 97 | 1019.8 |
| 20260831034600 | 71 | 0 | 0.0 | 0.0 | 0.00 | 0.00 | 0.00 | 97 | 1019.8 |
| 20260831033105 | 71 | 0 | 0.0 | 0.0 | 0.00 | 0.00 | 0.00 | 96 | 1019.8 |
| 20260831031559 | 72 | 203 | 2.0 | 12.0 | 0.00 | 0.00 | 0.00 | 96 | 1019.5 |
| 20260831030103 | 72 | 0 | 0.0 | 3.0 | 0.00 | 0.00 | 0.00 | 96 | 1019.8 |
| 20260831024616 | 72 | 0 | 0.0 | 3.0 | 0.00 | 0.00 | 0.00 | 96 | 1019.3 |
| 20260831023058 | 72 | 0 | 0.0 | 4.0 | 0.00 | 0.00 | 0.00 | 95 | 1019.6 |
| 20260831021558 | 73 | 292 | 0.0 | 5.0 | 0.00 | 0.00 | 0.00 | 94 | 1019.7 |
| 20260831014558 | 73 | 0 | 0.0 | 0.0 | 0.00 | 0.00 | 0.00 | 93 | 1019.5 |
| 20260831013108 | 73 | 0 | 0.0 | 0.0 | 0.00 | 0.00 | 0.00 | 92 | 1019.6 |
| 20260831011558 | 73 | 0 | 0.0 | 0.0 | 0.00 | 0.00 | 0.00 | 91 | 1019.6 |
| 20260831010122 | 73 | 0 | 0.0 | 0.0 | 0.00 | 0.00 | 0.00 | 89 | 1019.6 |
| 20260831004559 | 73 | 0 | 0.0 | 0.0 | 0.00 | 0.00 | 0.00 | 88 | 1019.2 |
| 20260831003103 | 73 | 0 | 0.0 | 0.0 | 0.00 | 0.00 | 0.00 | 87 | 1019.1 |
| 20260831001608 | 73 | 0 | 0.0 | 0.0 | 0.00 | 0.00 | 0.00 | 86 | 1019.0 |
| 20260831000113 | 74 | 0 | 0.0 | 0.0 | 0.00 | 0.00 | 0.00 | 85 | 1018.9 |
| 20260830234559 | 74 | 0 | 0.0 | 0.0 | 0.00 | 0.00 | 0.00 | 84 | 1018.8 |
| 20260830233110 | 74 | 0 | 0.0 | 0.0 | 0.00 | 0.00 | 0.00 | 83 | 1019.1 |
| 20260830231603 | 75 | 0 | 0.0 | 0.0 | 0.00 | 0.00 | 0.00 | 83 | 1019.1 |
| 20260830230059 | 75 | 0 | 0.0 | 0.0 | 0.00 | 0.00 | 0.00 | 81 | 1019.0 |
| 20260830224557 | 75 | 0 | 0.0 | 0.0 | 0.00 | 0.00 | 0.00 | 80 | 1019.1 |
| 20260830223134 | 76 | 0 | 0.0 | 0.0 | 0.00 | 0.00 | 0.00 | 79 | 1018.9 |
| 20260830221605 | 76 | 0 | 0.0 | 0.0 | 0.00 | 0.00 | 0.00 | 77 | 1018.8 |
| 20260830220106 | 76 | 0 | 1.0 | 5.0 | 0.00 | 0.00 | 0.00 | 77 | 1018.9 |
| 20260830214555 | 77 | 214 | 0.0 | 8.0 | 0.00 | 0.00 | 0.00 | 79 | 1018.8 |
| 20260830213102 | 78 | 0 | 0.0 | 7.0 | 0.00 | 0.00 | 0.00 | 80 | 1018.9 |
| 20260830211600 | 78 | 0 | 0.0 | 0.0 | 0.00 | 0.00 | 0.00 | 80 | 1018.9 |
| 20260830210056 | 78 | 0 | 0.0 | 0.0 | 0.00 | 0.00 | 0.00 | 78 | 1018.7 |
| 20260830204600 | 79 | 211 | 0.0 | 7.0 | 0.00 | 0.00 | 0.00 | 77 | 1018.6 |
| 20260830203059 | 79 | 0 | 2.0 | 11.0 | 0.00 | 0.00 | 0.00 | 78 | 1018.8 |
| 20260830201557 | 78 | 203 | 0.0 | 6.0 | 0.00 | 0.00 | 0.00 | 82 | 1018.8 |
| 20260830200103 | 80 | 0 | 0.0 | 6.0 | 0.00 | 0.00 | 0.00 | 76 | 1018.9 |
| 20260830194609 | 81 | 0 | 0.0 | 7.0 | 0.00 | 0.00 | 0.00 | 70 | 1019.0 |
| 20260830193104 | 80 | 0 | 1.0 | 9.0 | 0.00 | 0.00 | 0.00 | 69 | 1019.2 |
| 20260830191604 | 81 | 0 | 3.0 | 8.0 | 0.00 | 0.00 | 0.00 | 69 | 1019.4 |
| 20260830190105 | 81 | 0 | 1.0 | 10.0 | 0.00 | 0.00 | 0.00 | 68 | 1019.6 |
| 20260830184619 | 81 | 0 | 3.0 | 12.0 | 0.00 | 0.00 | 0.00 | 68 | 1019.8 |
| 20260830183125 | 81 | 0 | 0.0 | 9.0 | 0.00 | 0.00 | 0.00 | 70 | 1020.0 |
| 20260830181601 | 81 | 0 | 1.0 | 10.0 | 0.00 | 0.00 | 0.00 | 69 | 1020.2 |
| 20260830180104 | 80 | 0 | 2.0 | 11.0 | 0.00 | 0.00 | 0.00 | 71 | 1020.4 |
| 20260830174605 | 79 | 0 | 1.0 | 8.0 | 0.00 | 0.00 | 0.00 | 73 | 1020.8 |
| 20260830173103 | 78 | 0 | 1.0 | 11.0 | 0.00 | 0.00 | 0.00 | 74 | 1020.9 |
| 20260830171639 | 77 | 0 | 2.0 | 9.0 | 0.00 | 0.00 | 0.00 | 74 | 1021.1 |
| 20260830170100 | 76 | 0 | 0.0 | 6.0 | 0.00 | 0.00 | 0.00 | 78 | 1021.1 |
| 20260830164558 | 75 | 0 | 0.0 | 4.0 | 0.00 | 0.00 | 0.00 | 80 | 1021.5 |
| 20260830163104 | 75 | 196 | 3.0 | 10.0 | 0.00 | 0.00 | 0.00 | 78 | 1021.6 |
| 20260830161600 | 75 | 0 | 1.0 | 6.0 | 0.00 | 0.00 | 0.00 | 77 | 1021.6 |
| 20260830154558 | 76 | 238 | 2.0 | 7.0 | 0.00 | 0.00 | 0.00 | 77 | 1021.9 |
| 20260830153105 | 75 | 204 | 2.0 | 7.0 | 0.00 | 0.00 | 0.00 | 78 | 1021.8 |
| 20260830151610 | 74 | 0 | 0.0 | 5.0 | 0.00 | 0.00 | 0.00 | 80 | 1022.0 |
| 20260830144555 | 71 | 0 | 0.0 | 8.0 | 0.00 | 0.00 | 0.00 | 84 | 1022.0 |
| 20260830143100 | 70 | 188 | 0.0 | 4.0 | 0.00 | 0.00 | 0.00 | 87 | 1022.2 |
| 20260830141558 | 68 | 0 | 0.0 | 4.0 | 0.00 | 0.00 | 0.00 | 88 | 1022.3 |
| 20260830140109 | 67 | 0 | 0.0 | 2.0 | 0.00 | 0.00 | 0.00 | 90 | 1022.4 |
| 20260830134558 | 66 | 0 | 0.0 | 0.0 | 0.00 | 0.00 | 0.00 | 91 | 1022.5 |
| 20260830133108 | 65 | 0 | 0.0 | 0.0 | 0.00 | 0.00 | 0.00 | 93 | 1022.6 |
| 20260830131609 | 64 | 0 | 0.0 | 0.0 | 0.00 | 0.00 | 0.00 | 94 | 1023.0 |
| 20260830130117 | 62 | 0 | 0.0 | 0.0 | 0.00 | 0.00 | 0.00 | 96 | 1023.1 |
| 20260830124558 | 62 | 0 | 0.0 | 0.0 | 0.00 | 0.00 | 0.00 | 97 | 1023.1 |
| 20260830123059 | 62 | 0 | 0.0 | 0.0 | 0.00 | 0.00 | 0.00 | 97 | 1023.0 |
| 20260830121603 | 61 | 0 | 0.0 | 0.0 | 0.00 | 0.00 | 0.00 | 97 | 1023.0 |
| 20260830120101 | 60 | 0 | 0.0 | 0.0 | 0.00 | 0.00 | 0.00 | 97 | 1023.2 |
| 20260830114601 | 59 | 0 | 0.0 | 0.0 | 0.00 | 0.00 | 0.00 | 97 | 1023.2 |
| 20260830113101 | 59 | 0 | 0.0 | 0.0 | 0.00 | 0.00 | 0.00 | 97 | 1023.1 |
| 20260830111557 | 58 | 0 | 0.0 | 0.0 | 0.00 | 0.00 | 0.00 | 97 | 1023.2 |
| 20260830104604 | 58 | 0 | 0.0 | 0.0 | 0.00 | 0.00 | 0.00 | 97 | 1023.2 |
| 20260830103100 | 57 | 0 | 0.0 | 0.0 | 0.00 | 0.00 | 0.00 | 96 | 1023.2 |
| 20260830101559 | 57 | 0 | 0.0 | 0.0 | 0.00 | 0.00 | 0.00 | 97 | 1023.2 |
| 20260830100108 | 57 | 0 | 0.0 | 0.0 | 0.00 | 0.00 | 0.00 | 96 | 1023.0 |
| 20260830094600 | 56 | 0 | 0.0 | 0.0 | 0.00 | 0.00 | 0.00 | 96 | 1023.1 |
| 20260830093057 | 56 | 0 | 0.0 | 0.0 | 0.00 | 0.00 | 0.00 | 95 | 1022.9 |
| 20260830091557 | 56 | 0 | 0.0 | 0.0 | 0.00 | 0.00 | 0.00 | 95 | 1023.0 |
| 20260830090100 | 56 | 0 | 0.0 | 0.0 | 0.00 | 0.00 | 0.00 | 95 | 1023.0 |
| 20260830084627 | 56 | 0 | 0.0 | 0.0 | 0.00 | 0.00 | 0.00 | 94 | 1023.2 |
| 20260830083057 | 56 | 0 | 0.0 | 0.0 | 0.00 | 0.00 | 0.00 | 94 | 1023.2 |
| 20260830081636 | 56 | 0 | 0.0 | 0.0 | 0.00 | 0.00 | 0.00 | 94 | 1023.4 |